[[{"header":{"parameterUnit":"m.s-1","parameterCategory":1,"la1":30.2991,"la2":30.254,"lo1":-89.0895,"lo2":-89.0444,"dy":0.0017,"dx":0.0017,"nx":28,"ny":28,"refTime":"2025-01-03T03:00:00:Z","depth":0,"parameterNumber":2,"parameterNumberName":"U-component_of_WINDS"},"data":[0,0,0,0,0,0,0,0,0,0,0,0,0,0,0,0,0,0,0,0,0,0,0,0,0,0,0,0,0,0,0,0,0,0,0,0,0,0,0,0,0,0,0,0,0,0,0,0,0,0,0,0,0,0,0,0,0,0,-5.9695,-5.9695,0,-5.9732,-5.9733,-5.9733,-5.9644,-5.9641,-5.9639,-5.9636,-5.9674,-5.9677,-5.9681,0,0,0,0,0,0,0,0,0,0,0,0,0,-5.9548,-5.9551,-5.9695,-5.9695,-5.9696,-5.9732,-5.9733,-5.9733,-5.9645,-5.9641,-5.9638,-5.9635,-5.9672,-5.9677,-5.9681,0,0,0,0,0,0,0,0,0,0,0,0,0,-5.9601,-5.9552,-5.9695,-5.9656,-5.9653,-5.9732,-5.9733,-5.9733,-5.9645,-5.9641,-5.9637,-5.9633,-5.9671,-5.9676,-5.9682,-5.98,0,0,-5.9698,-5.9701,0,0,0,0,0,0,0,0,-5.9598,-5.9606,-5.9661,-5.9659,-5.9656,-5.9679,-5.9694,-5.9755,-5.9647,-5.9648,-5.9636,-5.9631,-5.9679,-5.9683,-5.97,-5.9801,-5.9803,-5.9699,-5.9702,-5.9704,-5.9706,0,0,0,0,0,0,0,-5.9595,-5.9604,-5.971,-5.9662,-5.9659,-5.9637,-5.964,-5.9706,-5.9687,-5.9648,-5.9642,-5.9647,-5.9676,-5.9695,-5.97,-5.9803,-5.9699,-5.9703,-5.9707,-5.9709,-6.0002,-6.0007,0,0,0,0,0,0,-5.9596,-5.9602,-5.9708,-5.9711,-5.9616,-5.9643,-5.9646,-5.9676,-5.9686,-5.9683,-5.9651,-5.9643,-5.9687,-5.9694,-5.9701,-5.9837,-5.9704,-5.9709,-5.9713,-5.9998,-6.0003,-6.0008,0,0,0,0,0,0,-5.9593,-5.9606,-5.9707,-5.9655,-5.9666,-5.965,-5.9684,-5.9679,-5.9697,-5.9688,-5.9684,-5.9673,-5.9684,-5.9693,-5.9775,-5.9837,-5.9712,-5.9717,-5.9993,-6.0,-6.0006,-6.0112,0,0,0,0,0,0,-5.9589,-5.9606,-5.965,-5.9656,-5.9669,-5.9781,-5.9688,-5.9683,-5.9706,-5.9696,-5.9707,-5.9705,-5.9682,-5.9768,-5.9781,-5.9842,-5.9721,-5.9987,-5.9996,-6.0004,-6.0103,-6.0122,-6.0138,0,0,0,0,0,-5.9584,-5.9679,-5.9653,-5.9666,-5.9724,-5.9785,-5.9792,-5.9763,-5.9712,-5.9756,-5.9751,-5.9705,-5.983,-5.9777,-5.9791,-5.9855,-5.9983,-5.9993,-6.0003,-6.0095,-6.0118,-6.0137,0,0,0,0,0,0,-5.9679,-5.9679,-5.965,-5.9749,-5.9768,-5.977,-5.9824,-5.9788,-5.9821,-5.9811,-5.9774,-5.9777,-5.9866,-5.9869,-5.9811,-5.9969,-5.9897,-5.9911,-5.9962,-5.9984,-6.0001,-5.9996,-5.9726,0,0,0,0,0,-5.9712,-5.9762,-5.9759,-5.9847,-5.9857,-5.984,-5.9865,-5.9842,-5.9859,-5.9866,-5.9867,-5.9885,-5.9928,-5.9957,-5.9997,-6.0105,-6.0105,-6.0156,-6.0174,-6.0188,-6.0198,-6.0254,-6.0276,-6.0042,-6.0042,-6.0042,0,0,-5.978,-5.9786,-5.9819,-5.9866,-5.9877,-5.9928,-5.9847,-5.9905,-5.9942,-5.9875,-5.9951,-5.9953,-5.9972,-6.0067,-6.0109,-6.0072,-6.0264,-6.0201,-6.0213,-6.0215,-6.0267,-6.0289,-6.0308,-6.0049,-6.0048,-6.0046,0,0,-5.9928,-5.9939,-6.0012,-6.0026,-6.0044,-6.0032,-6.0051,-6.0058,-6.0057,-6.0134,-6.0084,-6.0129,-6.0204,-6.0219,-6.0236,-6.0393,-6.0351,-6.0407,-6.0496,-6.0551,-6.0569,-6.0585,-6.0638,-6.0657,-6.0419,-6.0419,-6.0419,0,-6.0009,-6.0084,-6.0054,-6.0115,-6.0137,-6.008,-6.0153,-6.0168,-6.0199,-6.0215,-6.0175,-6.0268,-6.0277,-6.0374,-6.0412,-6.043,-6.0447,-6.0403,-6.0569,-6.0585,-6.0599,-6.0649,-6.0669,-6.0426,-6.0425,-6.0424,-6.0424,0,-6.0182,-6.0235,-6.0292,-6.0323,-6.0351,-6.0419,-6.0399,-6.0432,-6.0407,-6.0399,-6.0478,-6.0487,-6.0526,-6.0549,-6.0526,-6.0643,-6.0619,-6.0575,-6.0501,-6.0628,-6.0674,-6.0693,-6.0435,-6.0432,-6.0431,-6.0429,0,0,-6.0386,-6.0401,-6.0422,-6.0435,-6.0453,-6.0493,-6.0559,-6.0597,-6.0625,-6.065,-6.0702,-6.0768,-6.0728,-6.0748,-6.0726,-6.0775,-6.0894,-6.0724,-6.0724,-6.0752,-6.1021,-6.105,-6.1073,-6.0869,-6.0873,-6.0876,-6.1018,0,-6.0529,-6.064,-6.0616,-6.0724,-6.0772,-6.0721,-6.0777,-6.0794,-6.079,-6.083,-6.0826,-6.0872,-6.0817,-6.0828,-6.0874,-6.087,-6.0947,-6.086,-6.0915,-6.0917,-6.0906,-6.1097,-6.1128,-6.1261,-6.1036,-6.1039,-6.1041,0,-6.071,-6.0741,-6.0854,-6.0864,-6.0883,-6.0934,-6.0967,-6.1007,-6.1026,-6.1019,-6.1043,-6.1012,-6.1076,-6.1006,-6.1093,-6.1034,-6.1057,-6.1058,-6.1063,-6.1062,-6.0983,-6.1098,-6.1304,-6.1322,-6.107,-6.1067,-6.1065,0,-6.0842,-6.0913,-6.0989,-6.1003,-6.1017,-6.1054,-6.1062,-6.1076,-6.1101,-6.1132,-6.1147,-6.1185,-6.1204,-6.1235,-6.1215,-6.1166,-6.1304,-6.1233,-6.1298,-6.1299,-6.1325,-6.1323,-6.1533,-6.1348,-6.1348,-6.1348,-6.1347,0,-6.1002,-6.1072,-6.1049,-6.1095,-6.1173,-6.1146,-6.1223,-6.1225,-6.1239,-6.1285,-6.1245,-6.1288,-6.1262,-6.1304,-6.129,-6.1362,-6.1373,-6.1368,-6.1362,-6.1368,-6.1368,-6.1378,-6.1367,-6.1353,-6.1352,-6.1351,-6.135,0,-6.116,-6.1148,-6.1227,-6.1235,-6.1239,-6.1295,-6.1302,-6.1345,-6.1339,-6.1397,-6.141,-6.14,-6.1447,-6.1432,-6.1484,-6.1474,-6.1565,-6.155,-6.1558,-6.1552,-6.1617,-6.1609,-6.1836,-6.1863,-6.1666,-6.1668,-6.167,0,-6.126,-6.1313,-6.1327,-6.1354,-6.1365,-6.1411,-6.1436,-6.1413,-6.1441,-6.1467,-6.1507,-6.1551,-6.1584,-6.1662,-6.1659,-6.1698,-6.1681,-6.1758,-6.1686,-6.169,-6.1677,-6.1672,-6.1676,-6.1771,-6.1773,-6.1775,-6.1776,0,-6.1437,-6.1429,-6.1467,-6.1503,-6.1535,-6.1562,-6.1586,-6.1611,-6.159,-6.1624,-6.1671,-6.1698,-6.175,-6.1793,-6.1829,-6.1837,-6.1802,-6.18,-6.1816,-6.182,-6.1821,-6.1817,-6.1592,-6.1793,-6.1792,-6.179,-6.179,-6.1789,-6.1566,-6.161,-6.1626,-6.167,-6.1686,-6.171,-6.175,-6.175,-6.1789,-6.1829,-6.1815,-6.1869,-6.1887,-6.1931,-6.1945,-6.1986,-6.1956,-6.1981,-6.1987,-6.1992,-6.1998,-6.1819,-6.1994,-6.1993,-6.1993,-6.1992,-6.1992,0,-6.1737,-6.1746,-6.1787,-6.1821,-6.1856,-6.1824,-6.1849,-6.1879,-6.1927,-6.1948,-6.1982,-6.2036,-6.2079,-6.2081,-6.212,-6.2154,-6.2139,-6.2164,-6.2159,-6.2161,-6.2025,-6.2004,-6.2175,-6.2175,-6.2175,-6.2175,-6.2175,-6.2175,-6.1829,-6.1901,-6.1895,-6.1975,-6.1983,-6.2035,-6.2052,-6.2074,-6.2089,-6.2152,-6.2187,-6.2189,-6.2202,-6.2242,-6.228,-6.2279,-6.2294,-6.2324,-6.2318,-6.2189,-6.2171,-6.2153,-6.2133,-6.2329,-6.2329,-6.2449,-6.245,-6.2451]},{"header":{"parameterUnit":"m.s-1","parameterCategory":1,"la1":30.2991,"la2":30.254,"lo1":-89.0895,"lo2":-89.0444,"dy":0.0017,"dx":0.0017,"nx":28,"ny":28,"refTime":"2025-01-03T03:00:00:Z","depth":0,"parameterNumber":3,"parameterNumberName":"V-component_of_WINDS"},"data":[0,0,0,0,0,0,0,0,0,0,0,0,0,0,0,0,0,0,0,0,0,0,0,0,0,0,0,0,0,0,0,0,0,0,0,0,0,0,0,0,0,0,0,0,0,0,0,0,0,0,0,0,0,0,0,0,0,0,1.0386,1.0386,0,1.0395,1.0395,1.0395,1.0331,1.0329,1.0327,1.0325,1.0334,1.0336,1.0338,0,0,0,0,0,0,0,0,0,0,0,0,0,1.0314,1.0316,1.0386,1.0386,1.0386,1.0395,1.0395,1.0395,1.0331,1.0329,1.0327,1.0324,1.0333,1.0335,1.0338,0,0,0,0,0,0,0,0,0,0,0,0,0,1.0337,1.0316,1.0386,1.0355,1.0353,1.0395,1.0395,1.0395,1.0331,1.0329,1.0326,1.0323,1.0332,1.0335,1.0338,1.041,0,0,1.0347,1.0348,0,0,0,0,0,0,0,0,1.0335,1.0339,1.036,1.0358,1.0355,1.0359,1.0373,1.04,1.0332,1.034,1.0325,1.0322,1.0344,1.0346,1.0354,1.0411,1.0411,1.0347,1.0349,1.035,1.0351,0,0,0,0,0,0,0,1.0334,1.0338,1.039,1.036,1.0357,1.0341,1.0341,1.0378,1.0357,1.0339,1.0334,1.0336,1.0342,1.0351,1.0353,1.0411,1.0347,1.035,1.0351,1.0352,1.053,1.0533,0,0,0,0,0,0,1.0336,1.0338,1.0389,1.039,1.0338,1.0345,1.0345,1.036,1.0356,1.0353,1.0338,1.0333,1.0347,1.035,1.0353,1.044,1.035,1.0353,1.0354,1.0527,1.0531,1.0534,0,0,0,0,0,0,1.0335,1.0342,1.0389,1.0363,1.0367,1.0349,1.0367,1.0362,1.0371,1.0356,1.0352,1.0351,1.0345,1.0349,1.0397,1.0439,1.0354,1.0357,1.0524,1.0528,1.0533,1.0612,0,0,0,0,0,0,1.0333,1.0342,1.0369,1.0364,1.0369,1.0433,1.0369,1.0364,1.0376,1.0369,1.0367,1.0364,1.0344,1.0393,1.04,1.0442,1.0359,1.052,1.0526,1.0531,1.0606,1.0619,1.063,0,0,0,0,0,1.0331,1.039,1.037,1.0377,1.0403,1.0435,1.0438,1.0414,1.0379,1.0407,1.0398,1.0364,1.0433,1.0399,1.0406,1.0449,1.0517,1.0524,1.0531,1.0601,1.0617,1.063,0,0,0,0,0,0,1.04,1.0389,1.0367,1.0426,1.0432,1.0424,1.0458,1.0431,1.0447,1.044,1.0408,1.0409,1.0462,1.046,1.0422,1.052,1.0469,1.0478,1.052,1.0535,1.0547,1.0547,1.0361,0,0,0,0,0,1.0422,1.0449,1.0438,1.0491,1.0496,1.0477,1.049,1.0471,1.0476,1.0478,1.0472,1.0479,1.0502,1.0518,1.0538,1.0605,1.0605,1.0638,1.065,1.066,1.0669,1.0706,1.0722,1.0556,1.0556,1.0556,0,0,1.0468,1.0465,1.0484,1.0505,1.0508,1.0538,1.0479,1.0513,1.0535,1.0483,1.0529,1.0525,1.053,1.0588,1.0613,1.0588,1.0714,1.0669,1.0677,1.068,1.0715,1.073,1.0744,1.0561,1.056,1.0559,0,0,1.0567,1.0567,1.0613,1.0617,1.0622,1.0609,1.062,1.0617,1.0613,1.0658,1.062,1.0646,1.0686,1.0692,1.07,1.0804,1.0774,1.0811,1.0876,1.0913,1.0926,1.0937,1.0977,1.0991,1.0819,1.0819,1.0819,0,1.0624,1.0668,1.064,1.0677,1.0688,1.0643,1.069,1.0695,1.0706,1.0715,1.0686,1.0737,1.0737,1.0797,1.0823,1.083,1.0843,1.0812,1.0926,1.0937,1.0947,1.0985,1.1,1.0824,1.0823,1.0823,1.0822,0,1.0738,1.0769,1.0806,1.0819,1.0834,1.0876,1.0855,1.0873,1.0853,1.0843,1.0891,1.0889,1.091,1.0922,1.0902,1.0981,1.0965,1.0931,1.088,1.0968,1.1003,1.1017,1.0831,1.0829,1.0827,1.0826,0,0,1.0882,1.0881,1.0895,1.0902,1.0904,1.0928,1.0968,1.0988,1.1006,1.1015,1.105,1.1085,1.1055,1.1064,1.1044,1.1076,1.1162,1.1039,1.1039,1.1064,1.1251,1.1279,1.1296,1.1141,1.1144,1.1146,1.1252,0,1.0982,1.1051,1.1028,1.1098,1.1128,1.1086,1.1121,1.1127,1.1119,1.1143,1.1134,1.1161,1.1117,1.1123,1.1153,1.1145,1.1199,1.1137,1.1175,1.1176,1.1177,1.1313,1.1342,1.1442,1.1265,1.1267,1.1269,0,1.1107,1.1123,1.1198,1.1198,1.1209,1.1241,1.126,1.1282,1.1289,1.1281,1.1292,1.1266,1.1306,1.1253,1.1309,1.1267,1.1281,1.128,1.1283,1.1287,1.123,1.1324,1.1473,1.1489,1.1289,1.1288,1.1286,0,1.1209,1.1248,1.1299,1.1305,1.1305,1.133,1.1331,1.1334,1.1349,1.1364,1.1374,1.1393,1.1405,1.1421,1.1401,1.1364,1.1461,1.1406,1.1457,1.1458,1.1481,1.148,1.1637,1.1486,1.1485,1.1485,1.1485,0,1.1324,1.1372,1.1345,1.1376,1.1429,1.1401,1.1454,1.145,1.1454,1.1484,1.1447,1.1477,1.1447,1.1474,1.1458,1.1508,1.1512,1.1508,1.1504,1.1513,1.1514,1.1524,1.1517,1.1489,1.1488,1.1487,1.1487,0,1.1447,1.143,1.1483,1.1479,1.1479,1.1519,1.1516,1.1545,1.1534,1.1573,1.1581,1.1565,1.1594,1.1575,1.1605,1.1594,1.1661,1.1645,1.166,1.1656,1.171,1.1706,1.188,1.1903,1.1734,1.1736,1.1737,0,1.1523,1.1559,1.156,1.1578,1.1582,1.1611,1.1626,1.1601,1.1618,1.1629,1.1657,1.1684,1.1704,1.1753,1.1744,1.1767,1.1754,1.1813,1.1757,1.1766,1.1758,1.1758,1.1762,1.1825,1.1827,1.1829,1.183,0,1.1661,1.1651,1.1675,1.1697,1.1716,1.1732,1.1744,1.1761,1.1735,1.1757,1.1787,1.1803,1.1834,1.1861,1.1881,1.1882,1.1853,1.1847,1.1861,1.1872,1.188,1.188,1.1693,1.1844,1.1843,1.1842,1.1841,1.184,1.1765,1.1796,1.1802,1.183,1.1837,1.185,1.1878,1.1872,1.1897,1.1921,1.1903,1.194,1.1947,1.197,1.1975,1.2004,1.1979,1.1998,1.2004,1.201,1.2019,1.1874,1.2006,1.2006,1.2006,1.2005,1.2005,0,1.1903,1.1906,1.1932,1.1951,1.1974,1.1944,1.1956,1.1978,1.2011,1.2019,1.204,1.2076,1.2103,1.2096,1.2121,1.2145,1.2133,1.2153,1.2152,1.2153,1.2037,1.2024,1.2163,1.2162,1.2162,1.2162,1.2162,1.2162,1.1978,1.2031,1.2022,1.2078,1.2079,1.2116,1.2126,1.2138,1.2145,1.2187,1.221,1.2205,1.2208,1.2233,1.2256,1.2254,1.2266,1.2291,1.2284,1.2176,1.2161,1.2146,1.2134,1.2293,1.2294,1.2398,1.2399,1.24]}]]